When you browse on this site, cookies collect data to enhance your experience and personalize the content and advertising you see.
Visit our Privacy Policy to learn more. By continuing to use the site, you agree to this use of cookies and data.
  • In Portugal
  • List of Countries
  • For 7 days
  • Water Temperature
  • Weather Map
  • Weather Widgets
  • user-avatar
    Login

    Hourly Weather Horog

    Today, 8 April, Wednesday

    Time Temperature Precipitation Wind Pressure Humidity
    00:00 -10°C° 0 mm 1 mps 483 mmHg 75%
    01:00 -10°C° 0 mm 1 mps 482 mmHg 75%
    02:00 -11°C° 0 mm 1 mps 482 mmHg 75%
    03:00 -11°C° 0 mm 1 mps 482 mmHg 74%
    04:00 -11°C° 0 mm 1 mps 481 mmHg 74%
    05:00 -12°C° 0 mm 1 mps 481 mmHg 74%
    06:00 -11°C° 0 mm 1 mps 482 mmHg 74%
    07:00 -9°C° 0 mm 1 mps 483 mmHg 74%
    08:00 -8°C° 0 mm 1 mps 484 mmHg 74%
    09:00 -7°C° 0 mm 1 mps 484 mmHg 72%
    10:00 -6°C° 0 mm 1 mps 485 mmHg 70%
    11:00 -4°C° 0 mm 1 mps 485 mmHg 69%
    12:00 -3°C° 0 mm 1 mps 485 mmHg 72%
    13:00 -2°C° 0 mm 1 mps 486 mmHg 75%
    14:00 -1°C° 0 mm 1 mps 486 mmHg 78%
    15:00 -1°C° 0 mm 1 mps 486 mmHg 80%
    16:00 -1°C° 0 mm 1 mps 486 mmHg 82%
    17:00 -2°C° 0 mm 1 mps 485 mmHg 84%
    18:00 -2°C° 0 mm 1 mps 485 mmHg 82%
    19:00 -3°C° 0 mm 1 mps 485 mmHg 80%
    20:00 -4°C° 0 mm 1 mps 485 mmHg 78%
    21:00 -4°C° 0 mm 1 mps 485 mmHg 77%
    22:00 -4°C° 0 mm 1 mps 485 mmHg 75%
    23:00 -4°C° 0 mm 1 mps 485 mmHg 74%

    Tomorrow, 9 April, Thursday

    Time Temperature Precipitation Wind Pressure Humidity
    00:00 -4°C° 0.1 mm 1 mps 485 mmHg 75%
    01:00 -4°C° 0.1 mm 1 mps 484 mmHg 76%
    02:00 -6°C° 0.1 mm 1 mps 484 mmHg 78%
    03:00 -6°C° 1 mm 1 mps 484 mmHg 82%
    04:00 -6°C° 1 mm 1 mps 484 mmHg 87%
    05:00 -6°C° 1 mm 1 mps 484 mmHg 91%
    06:00 -7°C° 1 mm 2 mps 484 mmHg 92%
    07:00 -7°C° 1 mm 2 mps 484 mmHg 94%
    08:00 -6°C° 1 mm 2 mps 485 mmHg 95%
    09:00 -6°C° 1 mm 2 mps 485 mmHg 94%
    10:00 -7°C° 1 mm 3 mps 485 mmHg 93%
    11:00 -7°C° 1 mm 3 mps 486 mmHg 92%
    12:00 -6°C° 0.2 mm 3 mps 486 mmHg 92%
    13:00 -5°C° 0.2 mm 2 mps 486 mmHg 91%
    14:00 -5°C° 0.2 mm 2 mps 486 mmHg 91%
    15:00 -5°C° 0.1 mm 2 mps 486 mmHg 90%
    16:00 -3°C° 0.1 mm 1 mps 486 mmHg 88%
    17:00 -3°C° 0.1 mm 1 mps 486 mmHg 87%
    18:00 -6°C° 0 mm 1 mps 485 mmHg 85%
    19:00 -8°C° 0 mm 1 mps 484 mmHg 82%
    20:00 -10°C° 0 mm 1 mps 483 mmHg 80%
    21:00 -11°C° 0 mm 1 mps 482 mmHg 74%
    22:00 -12°C° 0 mm 1 mps 482 mmHg 68%
    23:00 -12°C° 0 mm 1 mps 482 mmHg 62%

    Day after tomorrow, 10 April, Friday

    Time Temperature Precipitation Wind Pressure Humidity
    00:00 -13°C° 0 mm 1 mps 482 mmHg 61%
    01:00 -15°C° 0 mm 2 mps 482 mmHg 60%
    02:00 -16°C° 0 mm 2 mps 481 mmHg 59%
    03:00 -16°C° 0 mm 2 mps 481 mmHg 57%
    04:00 -17°C° 0 mm 2 mps 481 mmHg 54%
    05:00 -17°C° 0 mm 2 mps 481 mmHg 52%
    06:00 -16°C° 0 mm 2 mps 482 mmHg 54%
    07:00 -15°C° 0 mm 2 mps 483 mmHg 56%
    08:00 -13°C° 0 mm 2 mps 483 mmHg 58%
    09:00 -12°C° 0 mm 2 mps 484 mmHg 57%
    10:00 -9°C° 0 mm 2 mps 484 mmHg 56%
    11:00 -8°C° 0 mm 2 mps 485 mmHg 54%
    12:00 -6°C° 0 mm 1 mps 486 mmHg 55%
    13:00 -4°C° 0 mm 1 mps 486 mmHg 57%
    14:00 -3°C° 0 mm 1 mps 487 mmHg 58%
    15:00 -3°C° 0 mm 1 mps 487 mmHg 62%
    16:00 -3°C° 0 mm 1 mps 487 mmHg 66%
    17:00 -3°C° 0 mm 1 mps 487 mmHg 70%
    18:00 -4°C° 0 mm 1 mps 486 mmHg 62%
    19:00 -6°C° 0 mm 1 mps 486 mmHg 53%
    20:00 -7°C° 0 mm 1 mps 486 mmHg 45%
    21:00 -7°C° 0.1 mm 1 mps 486 mmHg 46%
    22:00 -7°C° 0.1 mm 1 mps 487 mmHg 47%
    23:00 -6°C° 0.1 mm 1 mps 487 mmHg 48%

    11 April, Saturday

    Time Temperature Precipitation Wind Pressure Humidity
    00:00 -6°C° 0.2 mm 1 mps 487 mmHg 56%
    01:00 -7°C° 0.2 mm 2 mps 488 mmHg 64%
    02:00 -7°C° 0.2 mm 2 mps 488 mmHg 72%
    03:00 -7°C° 0.5 mm 2 mps 488 mmHg 78%
    04:00 -7°C° 0.5 mm 2 mps 488 mmHg 84%
    05:00 -6°C° 0.5 mm 1 mps 488 mmHg 91%
    06:00 -6°C° 0.6 mm 1 mps 488 mmHg 91%
    07:00 -4°C° 0.6 mm 1 mps 489 mmHg 91%
    08:00 -3°C° 0.6 mm 1 mps 489 mmHg 92%
    09:00 -2°C° 0.3 mm 1 mps 489 mmHg 93%
    10:00 -2°C° 0.3 mm 1 mps 490 mmHg 95%
    11:00 -1°C° 0.3 mm 1 mps 490 mmHg 97%
    12:00 0°C° 0.2 mm 1 mps 490 mmHg 97%
    13:00 0°C° 0.2 mm 1 mps 490 mmHg 98%
    14:00 0°C° 0.2 mm 1 mps 490 mmHg 99%
    15:00 0°C° 0 mm 1 mps 490 mmHg 97%
    16:00 0°C° 0 mm 1 mps 490 mmHg 95%
    17:00 0°C° 0 mm 1 mps 490 mmHg 93%
    18:00 -1°C° 0 mm 1 mps 489 mmHg 91%
    19:00 -2°C° 0 mm 1 mps 489 mmHg 88%
    20:00 -3°C° 0 mm 1 mps 489 mmHg 86%
    21:00 -3°C° 0 mm 1 mps 489 mmHg 83%
    22:00 -4°C° 0 mm 1 mps 488 mmHg 81%
    23:00 -4°C° 0 mm 1 mps 488 mmHg 79%

    12 April, Sunday

    Time Temperature Precipitation Wind Pressure Humidity
    00:00 -4°C° 0 mm 1 mps 488 mmHg 78%
    01:00 -6°C° 0 mm 1 mps 488 mmHg 78%
    02:00 -7°C° 0 mm 2 mps 487 mmHg 78%
    03:00 -7°C° 0 mm 2 mps 487 mmHg 77%
    04:00 -6°C° 0 mm 1 mps 487 mmHg 77%
    05:00 -4°C° 0 mm 1 mps 488 mmHg 76%
    06:00 -3°C° 0 mm 1 mps 488 mmHg 76%
    07:00 -2°C° 0 mm 1 mps 489 mmHg 75%
    08:00 -2°C° 0 mm 1 mps 490 mmHg 75%
    09:00 -1°C° 0 mm 1 mps 490 mmHg 80%
    10:00 0°C° 0 mm 1 mps 491 mmHg 86%
    11:00 +1°C° 0 mm 1 mps 491 mmHg 91%
    12:00 +1°C° 0 mm 1 mps 491 mmHg 92%
    13:00 +1°C° 0 mm 1 mps 491 mmHg 92%
    14:00 +1°C° 0 mm 0 mps 491 mmHg 93%
    15:00 +1°C° 0 mm 0 mps 490 mmHg 91%
    16:00 0°C° 0 mm 0 mps 490 mmHg 89%
    17:00 0°C° 0 mm 0 mps 490 mmHg 88%
    18:00 +1°C° 0 mm 1 mps 489 mmHg 84%
    19:00 0°C° 0 mm 1 mps 489 mmHg 81%
    20:00 -1°C° 0 mm 1 mps 489 mmHg 77%
    21:00 -1°C° 0 mm 1 mps 489 mmHg 77%
    22:00 -2°C° 0 mm 1 mps 489 mmHg 76%
    23:00 -2°C° 0 mm 1 mps 489 mmHg 75%

    13 April, Monday

    Time Temperature Precipitation Wind Pressure Humidity
    00:00 -2°C° 0 mm 1 mps 488 mmHg 75%
    01:00 -2°C° 0 mm 1 mps 488 mmHg 75%
    02:00 -3°C° 0 mm 1 mps 488 mmHg 75%
    03:00 -2°C° 0 mm 1 mps 488 mmHg 75%
    04:00 -2°C° 0 mm 1 mps 488 mmHg 75%
    05:00 -2°C° 0 mm 1 mps 488 mmHg 76%
    06:00 -2°C° 0 mm 1 mps 488 mmHg 76%
    07:00 -1°C° 0 mm 1 mps 489 mmHg 76%
    08:00 0°C° 0 mm 1 mps 489 mmHg 76%
    09:00 0°C° 0.9 mm 1 mps 489 mmHg 82%
    10:00 0°C° 0.9 mm 1 mps 489 mmHg 88%
    11:00 -2°C° 0.9 mm 2 mps 489 mmHg 94%
    12:00 +1°C° 0.3 mm 1 mps 489 mmHg 95%
    13:00 +1°C° 0.3 mm 1 mps 489 mmHg 96%
    14:00 +1°C° 0.3 mm 1 mps 489 mmHg 96%
    15:00 +1°C° 0.4 mm 1 mps 489 mmHg 97%
    16:00 +1°C° 0.4 mm 1 mps 489 mmHg 98%
    17:00 +1°C° 0.4 mm 1 mps 488 mmHg 98%
    18:00 +1°C° 0.5 mm 1 mps 489 mmHg 98%
    19:00 0°C° 0.5 mm 1 mps 489 mmHg 98%
    20:00 0°C° 0.5 mm 1 mps 489 mmHg 98%
    21:00 0°C° 0.1 mm 1 mps 489 mmHg 97%
    22:00 -1°C° 0.1 mm 1 mps 488 mmHg 96%
    23:00 -1°C° 0.1 mm 1 mps 488 mmHg 94%
    Show more